Orbital Elements at Epoch 2459000.5 (2020-May-31.0) TDB
Reference: JPL 32 (heliocentric ecliptic J2000)
Element | Value | Uncertainty (1-sigma) | Units |
e | .1144828493005505 | 3.2985e-08 | |
a | 2.279317580629449 | 7.3789e-09 | au |
q | 2.018374809538153 | 7.4728e-08 | au |
i | 4.470411942953977 | 3.6396e-06 | deg |
node | 30.82214289240062 | 5.1737e-05 | deg |
peri | 351.2949414253774 | 5.4763e-05 | deg |
M | 90.68003670611789 | 1.7793e-05 | deg |
tp | 2458683.897110788398 (2019-Jul-19.39711079) | 6.1905e-05 | TDB |
period | 1256.914357959088 3.44 | 6.1035e-06 1.671e-08 | d yr |
n | .286415695485052 | 1.3908e-09 | deg/d |
Q | 2.540260351720746 | 8.2236e-09 | au |
|
| | Orbit Determination Parameters
Additional Information
|